Regional Weather Roundup
Issued by NWS

Home | Current Version | Previous Version | Graphics & Text | Print | Product List | Glossary On
Versions: 1 2 3 4 5 6 7 8 9 10 11 12 13 14 15 16 17 18 19 20 21 22 23 24 25 26 27 28 29 30 31 32 33 34 35 36 37 38 39 40 41 42 43 44 45 46 47 48 49 50
000
ASUS43 KBIS 231610
RWRND

NORTH DAKOTA REGIONAL WEATHER ROUNDUP
NATIONAL WEATHER SERVICE BISMARCK ND
1100 AM CDT MON OCT 23 2017

NOTE: "FAIR" INDICATES FEW OR NO CLOUDS BELOW 12,000 FEET WITH NO
SIGNIFICANT WEATHER AND/OR OBSTRUCTIONS TO VISIBILITY.


NDZ001>003-009>011-017-231700-
NORTHWEST NORTH DAKOTA

CITY           SKY/WX    TMP DP  RH WIND       PRES   REMARKS
WILLISTON      SUNNY     46  34  61 W12       30.16R
MINOT          CLOUDY    47  35  63 W24       30.05R
MINOT AFB      CLOUDY    45  34  66 NW23G35   30.03R
$$

NDZ018>021-031>035-040>046-231700-
SOUTHWEST NORTH DAKOTA

CITY           SKY/WX    TMP DP  RH WIND       PRES   REMARKS
BISMARCK       MOSUNNY   49  36  61 NW16G26   30.10R
DICKINSON      SUNNY     49  33  54 NW22G35   30.15R
GARRISON         N/A     44  34  67 NW20G35   30.09R
HETTINGER ARPT SUNNY     49  30  48 NW22G35   30.20R
$$

NDZ004>008-012>016-024-026-027-054-231700-
NORTHEAST NORTH DAKOTA

CITY           SKY/WX    TMP DP  RH WIND       PRES   REMARKS
GRAND FORKS    CLOUDY    47  37  68 NW25G35   29.90R
GRND FRKS AFB  CLOUDY    47  36  64 NW18G26   29.91R
DEVILS LAKE    PTSUNNY   43  37  79 NW22      29.97R
$$

NDZ022-023-025-028>030-036>039-047>053-231700-
SOUTHEAST NORTH DAKOTA

CITY           SKY/WX    TMP DP  RH WIND       PRES   REMARKS
FARGO          CLOUDY    47  40  76 NW21G30   29.89R
JAMESTOWN      SUNNY     47  36  65 NW24G35   29.98R
$$





USA.gov is the U.S. government's official web portal to all federal, state and local government web resources and services.